Location: Home
(42.5358°N, 72.7383°W)
Time: 16:52:33
(UTC-04:00)

Kosmos-337 - Pass Details

Date: 04 July 2022
Orbit: 1467 x 1552 km, 74.0° (Epoch: 18 August)

Event Time Altitude Azimuth Distance (km) Brightness Sun altitude
Rises 23:31:58 0° 342° (NNW) 4,734 ? -21.9°
Reaches altitude 10° 23:36:10 10° 359° (N) 3,746 ? -22.2°
Maximum altitude 23:42:30 20° 44° (NE) 3,013 ? -22.5°
Drops below altitude 10° 23:48:46 10° 88° (E) 3,712 ? -22.9°
Enters shadow 23:52:44 - 104° (ESE) 4,646 ? -23.1°
